VA3XLC Weather Reports


time (UTC)temp
C
wind
direction
speed
KPH
gust
KPH
rain 1hr
cm
rain 24hr
cm
rain mn
cm
humidity
%
barometer
mb
20260905112038 15 0 0.0 0.0 0.00 0.00 0.00 97 983.4
20260905111538 15 0 0.0 0.0 0.00 0.00 0.00 97 983.4
20260905111038 15 217 0.0 1.6 0.00 0.00 0.00 97 983.3
20260905110537 15 0 0.0 0.0 0.00 0.00 0.00 96 983.2
20260905110037 15 0 0.0 0.0 0.00 0.00 0.00 96 983.1
20260905105536 15 0 0.0 0.0 0.00 0.00 0.00 96 983.1
20260905105035 15 0 0.0 0.0 0.00 0.00 0.00 96 983.0
20260905103453 16 0 0.0 0.0 0.00 0.00 0.00 95 982.8
20260905102953 16 0 0.0 0.0 0.00 0.00 0.00 95 982.6
20260905102452 16 94 3.2 4.8 0.00 0.00 0.00 94 982.5
20260905101952 16 166 3.2 4.8 0.00 0.00 0.00 94 982.5
20260905101452 16 137 1.6 1.6 0.00 0.00 0.00 94 982.5
20260905100952 16 87 3.2 6.4 0.00 0.00 0.00 93 982.5
20260905100452 16 75 4.8 9.7 0.00 0.00 0.00 93 982.4
20260905095951 16 149 1.6 3.2 0.00 0.00 0.00 93 982.5
20260905093848 17 75 3.2 6.4 0.00 0.00 0.00 92 982.4
20260905092826 17 74 3.2 4.8 0.00 0.00 0.00 91 982.3
20260905092326 17 82 3.2 6.4 0.00 0.00 0.00 91 982.3
20260905091826 17 49 1.6 3.2 0.00 0.00 0.00 91 982.3
20260905091326 17 130 1.6 3.2 0.00 0.00 0.00 91 982.2
20260905090826 17 82 3.2 4.8 0.00 0.00 0.00 91 982.3
20260905090325 17 89 1.6 6.4 0.00 0.00 0.00 91 982.4
20260905085825 17 75 3.2 6.4 0.00 0.00 0.00 91 982.5
20260905085325 17 76 4.8 6.4 0.00 0.00 0.00 91 982.7
20260905084825 17 69 0.0 1.6 0.00 0.00 0.00 91 982.8
20260905084324 17 101 3.2 4.8 0.00 0.00 0.00 91 982.8
20260905083303 17 76 1.6 4.8 0.00 0.00 0.00 92 982.6
20260905082803 17 67 1.6 3.2 0.00 0.00 0.00 92 982.5
20260905082306 17 110 3.2 4.8 0.00 0.00 0.00 93 982.5
20260905081802 17 48 1.6 4.8 0.00 0.00 0.00 93 982.4
20260905081302 17 116 3.2 4.8 0.00 0.00 0.00 93 982.4
20260905080240 17 143 3.2 6.4 0.00 0.00 0.00 93 982.1
20260905075739 17 112 3.2 4.8 0.00 0.00 0.00 94 982.1
20260905075239 17 115 3.2 4.8 0.00 0.00 0.00 94 982.1
20260905074738 17 106 1.6 3.2 0.00 0.00 0.00 94 982.1
20260905073716 17 96 1.6 3.2 0.00 0.00 0.00 94 982.0
20260905073216 17 111 4.8 6.4 0.00 0.00 0.00 94 982.0
20260905072716 17 110 3.2 4.8 0.00 0.00 0.00 95 982.0
20260905072216 17 55 3.2 4.8 0.00 0.00 0.00 95 981.9
20260905071715 17 69 4.8 8.0 0.00 0.00 0.00 96 981.9
20260905071215 17 0 0.0 0.0 0.00 0.00 0.00 96 982.0
20260905070714 17 56 1.6 3.2 0.00 0.00 0.00 96 982.1
20260905070214 17 0 0.0 0.0 0.00 0.00 0.00 96 982.1
20260905065714 17 0 0.0 0.0 0.00 0.00 0.00 96 982.1
20260905065213 17 0 0.0 0.0 0.00 0.00 0.00 96 982.2
20260905064713 17 0 0.0 0.0 0.00 0.00 0.00 96 982.2
20260905064213 17 58 1.6 1.6 0.00 0.00 0.00 96 982.1
20260905063713 17 100 1.6 3.2 0.00 0.00 0.00 96 982.1
20260905063212 17 102 1.6 3.2 0.00 0.00 0.00 96 982.0
20260905062150 17 56 1.6 3.2 0.00 0.00 0.00 95 982.2
20260905061650 17 0 0.0 0.0 0.00 0.00 0.00 96 982.2
20260905061150 17 135 1.6 3.2 0.00 0.00 0.00 95 982.1
20260905060650 17 103 3.2 4.8 0.00 0.00 0.00 96 982.2
20260905055107 17 132 1.6 3.2 0.00 0.00 0.00 96 982.3
20260905054045 18 55 1.6 3.2 0.00 0.00 0.00 96 982.4
20260905053545 18 0 0.0 0.0 0.00 0.00 0.00 96 982.4
20260905053045 18 0 0.0 0.0 0.00 0.00 0.00 95 982.4
20260905052023 18 132 1.6 3.2 0.00 0.00 0.00 95 982.4
20260905051522 18 82 3.2 4.8 0.00 0.00 0.00 94 982.4
20260905051022 18 69 1.6 3.2 0.00 0.00 0.00 94 982.5
20260905050522 19 87 1.6 4.8 0.00 0.00 0.00 93 982.5
20260905050022 19 105 3.2 3.2 0.00 0.00 0.00 93 982.5
20260905045521 19 91 3.2 4.8 0.00 0.00 0.00 92 982.5
20260905044502 19 91 3.2 4.8 0.00 0.00 0.00 91 982.5
20260905043438 20 108 3.2 6.4 0.00 0.00 0.00 90 982.5
20260905042938 20 81 1.6 3.2 0.00 0.00 0.00 91 982.5
20260905042437 20 0 0.0 0.0 0.00 0.00 0.00 91 982.6
20260905041937 20 88 3.2 4.8 0.00 0.00 0.00 90 982.6
20260905041437 20 39 1.6 3.2 0.00 0.00 0.00 91 982.6
20260905040937 20 0 0.0 0.0 0.00 0.00 0.00 91 982.6
20260905040437 20 0 0.0 0.0 0.00 0.00 0.00 91 982.6
20260905035936 20 0 0.0 0.0 0.00 0.00 0.00 91 982.6
20260905035436 20 36 1.6 3.2 0.00 0.00 0.00 91 982.6
20260905034936 20 124 1.6 1.6 0.00 0.00 0.00 91 982.7
20260905034435 20 38 1.6 6.4 0.00 0.00 0.00 91 982.7
20260905033935 20 0 0.0 0.0 0.00 0.00 0.00 92 982.7
20260905033434 20 64 3.2 4.8 0.00 0.00 0.00 92 982.8
20260905032934 20 359 1.6 3.2 0.00 0.00 0.00 93 982.8
20260905032433 20 0 0.0 0.0 0.00 0.00 0.00 93 982.8
20260905031933 20 0 0.0 0.0 0.00 0.00 0.00 93 982.8
20260905031433 20 0 0.0 0.0 0.00 0.00 0.00 94 982.7
20260905030412 20 0 0.0 0.0 0.00 0.00 0.00 94 982.7
20260905025912 20 0 0.0 0.0 0.00 0.00 0.00 94 982.8
20260905025411 20 0 0.0 0.0 0.00 0.00 0.00 95 982.8
20260905024910 20 0 0.0 0.0 0.00 0.00 0.00 95 982.8
20260905023849 20 0 0.0 0.0 0.00 0.00 0.00 94 982.8
20260905023349 20 0 0.0 0.0 0.00 0.00 0.00 94 982.8
20260905022327 20 0 0.0 0.0 0.00 0.00 0.00 94 982.7
20260905021826 20 0 0.0 0.0 0.00 0.00 0.00 94 982.6
20260905021325 20 0 0.0 0.0 0.00 0.00 0.00 94 982.7
20260905020825 20 0 0.0 0.0 0.00 0.00 0.00 93 982.7
20260905020325 20 0 0.0 0.0 0.00 0.00 0.00 93 982.7
20260905015824 20 0 0.0 0.0 0.00 0.00 0.00 92 982.7
20260905015323 20 0 0.0 0.0 0.00 0.00 0.00 90 982.7
20260905014302 20 0 0.0 0.0 0.00 0.00 0.00 90 982.7
20260905013802 20 0 0.0 0.0 0.00 0.00 0.00 91 982.6
20260905013302 20 0 0.0 0.0 0.00 0.00 0.00 91 982.6
20260905012802 20 0 0.0 0.0 0.00 0.00 0.00 90 982.6
20260905012305 20 0 0.0 0.0 0.00 0.00 0.00 88 982.5
20260905011801 20 0 0.0 0.0 0.00 0.00 0.00 90 982.5
20260905011300 20 0 0.0 0.0 0.00 0.00 0.00 88 982.5
20260905010800 20 0 0.0 0.0 0.00 0.00 0.00 89 982.5
20260905010300 20 0 0.0 0.0 0.00 0.00 0.00 88 982.5
20260905005759 20 0 0.0 0.0 0.00 0.00 0.00 87 982.4
20260905004737 21 0 0.0 0.0 0.00 0.00 0.00 85 982.4
20260905003716 21 100 1.6 3.2 0.00 0.00 0.00 86 982.3
20260905002654 21 0 0.0 0.0 0.00 0.00 0.00 86 982.3
20260905001633 21 0 0.0 0.0 0.00 0.00 0.00 87 982.3
20260905001133 21 0 0.0 0.0 0.00 0.00 0.00 87 982.3
20260905000633 21 0 0.0 0.0 0.00 0.00 0.00 85 982.3
20260905000132 21 0 0.0 0.0 0.00 0.00 0.00 84 982.4
20260904235111 21 124 1.6 3.2 0.00 0.00 0.00 84 982.4
20260904234611 21 54 1.6 3.2 0.00 0.00 0.00 84 982.4
20260904234111 21 94 1.6 3.2 0.00 0.00 0.00 84 982.4
20260904233610 21 104 1.6 3.2 0.00 0.00 0.00 85 982.4
20260904233110 21 110 1.6 3.2 0.00 0.00 0.00 84 982.3
20260904232610 21 103 1.6 3.2 0.00 0.00 0.00 84 982.2
20260904232110 21 71 3.2 4.8 0.00 0.00 0.00 84 982.2
20260904231610 21 56 1.6 4.8 0.00 0.00 0.00 84 982.2
20260904230548 21 117 1.6 3.2 0.00 0.00 0.00 83 982.2
20260904230048 21 141 1.6 3.2 0.00 0.00 0.00 84 982.2
20260904225548 21 64 1.6 3.2 0.00 0.00 0.00 85 982.1
20260904225047 21 114 1.6 3.2 0.00 0.00 0.00 85 982.1
20260904223505 21 122 1.6 3.2 0.00 0.00 0.00 86 981.9
20260904223005 21 96 4.8 6.4 0.00 0.00 0.00 86 981.8
20260904222504 21 65 3.2 4.8 0.00 0.00 0.00 86 981.9
20260904222004 21 63 3.2 6.4 0.00 0.00 0.00 87 981.8
20260904221503 21 73 4.8 8.0 0.00 0.00 0.00 86 981.7
20260904221002 21 51 3.2 6.4 0.00 0.00 0.00 86 981.7
20260904220502 21 77 6.4 9.7 0.00 0.00 0.00 86 981.6
20260904215441 21 75 4.8 9.7 0.00 0.00 0.00 86 981.5
20260904214940 21 79 3.2 4.8 0.00 0.00 0.00 87 981.5
20260904214439 21 100 3.2 8.0 0.00 0.00 0.00 86 981.3
20260904213418 21 94 6.4 8.0 0.00 0.00 0.00 87 981.3
20260904212918 21 91 4.8 6.4 0.00 0.00 0.00 87 981.4
20260904212417 22 80 4.8 9.7 0.00 0.00 0.00 89 981.4
20260904211917 22 99 4.8 8.0 0.00 0.00 0.00 90 981.3
20260904211417 22 66 4.8 9.7 0.00 0.00 0.00 91 981.4
20260904210917 22 80 4.8 8.0 0.00 0.00 0.00 90 981.4
20260904205855 22 91 4.8 8.0 0.00 0.00 0.00 90 981.3
20260904205355 22 108 6.4 9.7 0.00 0.00 0.00 89 981.3
20260904204855 22 77 4.8 6.4 0.00 0.00 0.00 89 981.3
20260904204355 22 76 3.2 8.0 0.00 0.00 0.00 89 981.3
20260904203855 22 45 3.2 4.8 0.00 0.00 0.00 90 981.2
20260904203354 22 57 4.8 8.0 0.00 0.00 0.00 90 981.3
20260904202854 22 75 3.2 8.0 0.00 0.00 0.00 90 981.3
20260904202354 22 81 4.8 8.0 0.00 0.00 0.00 89 981.4
20260904201854 22 70 4.8 6.4 0.00 0.00 0.00 90 981.4
20260904201353 22 65 4.8 8.0 0.00 0.00 0.00 90 981.5
20260904200853 22 78 4.8 8.0 0.00 0.00 0.00 89 981.5
20260904195832 22 94 3.2 8.0 0.00 0.00 0.00 90 981.5
20260904195332 22 120 4.8 8.0 0.00 0.00 0.00 91 981.6
20260904194831 22 145 6.4 9.7 0.00 0.00 0.00 90 981.7
20260904194331 22 118 4.8 9.7 0.00 0.00 0.00 91 981.7
20260904193831 22 120 1.6 4.8 0.00 0.00 0.00 91 981.8
20260904193330 22 123 3.2 8.0 0.00 0.00 0.00 91 981.9
20260904192309 22 88 4.8 6.4 0.00 0.00 0.00 90 982.0
20260904191809 22 124 3.2 6.4 0.00 0.00 0.00 90 982.0
20260904191309 22 112 4.8 4.8 0.00 0.00 0.00 90 982.0
20260904190808 22 127 4.8 8.0 0.00 0.00 0.00 90 982.0
20260904190308 22 167 3.2 4.8 0.00 0.00 0.00 90 982.1
20260904185808 23 142 3.2 4.8 0.00 0.00 0.00 88 982.1
20260904185308 23 143 1.6 4.8 0.00 0.00 0.00 87 982.2
20260904184808 23 142 4.8 6.4 0.00 0.00 0.00 86 982.3
20260904184308 23 54 1.6 3.2 0.00 0.00 0.00 86 982.3
20260904182725 22 41 3.2 3.2 0.00 0.00 0.00 88 982.5
20260904182224 23 105 3.2 6.4 0.00 0.00 0.00 88 982.4
20260904181723 23 130 1.6 3.2 0.00 0.00 0.00 87 982.5
20260904180702 23 144 3.2 4.8 0.00 0.00 0.00 86 982.5
20260904180201 23 113 4.8 6.4 0.00 0.00 0.00 86 982.4
20260904175701 23 45 4.8 6.4 0.00 0.00 0.00 85 982.5
20260904175201 22 293 1.6 3.2 0.00 0.00 0.00 87 982.5
20260904174701 22 127 3.2 6.4 0.00 0.00 0.00 88 982.7
20260904174200 22 164 1.6 3.2 0.00 0.00 0.00 86 982.8
20260904173700 22 153 3.2 6.4 0.00 0.00 0.00 87 982.9
20260904173200 22 64 1.6 3.2 0.00 0.00 0.00 88 983.1
20260904172659 21 332 3.2 4.8 0.00 0.00 0.00 89 983.3
20260904172158 21 243 3.2 4.8 0.00 0.00 0.00 88 983.3
20260904171657 21 67 1.6 3.2 0.00 0.00 0.00 90 983.5
20260904171157 21 349 3.2 6.4 0.00 0.00 0.00 92 983.5
20260904170136 21 350 3.2 4.8 0.00 0.00 0.00 93 983.6
20260904165635 21 199 1.6 3.2 0.00 0.00 0.00 94 983.8
20260904165135 20 315 4.8 4.8 0.00 0.00 0.00 94 983.9
20260904164634 20 252 4.8 6.4 0.00 0.00 0.00 94 984.1
20260904164134 20 308 4.8 6.4 0.00 0.00 0.00 94 984.2
20260904163113 20 271 4.8 6.4 0.00 0.00 0.00 94 984.4
20260904162611 20 0 0.0 0.0 0.00 0.00 0.00 95 984.5
20260904162111 20 246 4.8 8.0 0.00 0.00 0.00 95 984.6
20260904161611 20 257 3.2 4.8 0.00 0.00 0.00 95 984.7
20260904161111 20 255 3.2 6.4 0.00 0.00 0.00 95 984.8
20260904160610 20 278 4.8 6.4 0.00 0.00 0.00 95 984.8
20260904160110 20 262 3.2 6.4 0.00 0.00 0.00 95 984.8
20260904154528 20 250 4.8 6.4 0.00 0.00 0.00 96 984.5
20260904154027 20 266 4.8 4.8 0.00 0.00 0.00 96 984.7
20260904153527 20 286 3.2 4.8 0.00 0.00 0.00 96 984.7
20260904153027 20 268 3.2 6.4 0.00 0.00 0.00 96 984.7
20260904152527 20 300 3.2 4.8 0.00 0.00 0.00 95 984.7
20260904152026 20 250 3.2 4.8 0.00 0.00 0.00 95 984.7
20260904151004 20 244 3.2 4.8 0.00 0.00 0.00 94 984.6
20260904150504 20 275 1.6 1.6 0.00 0.00 0.00 94 984.5
20260904150004 20 0 0.0 0.0 0.00 0.00 0.00 93 984.4
20260904145504 20 0 0.0 0.0 0.00 0.00 0.00 94 984.3
20260904145004 20 154 1.6 4.8 0.00 0.00 0.00 93 984.4
20260904143420 20 279 1.6 3.2 0.00 0.00 0.00 93 984.5
20260904142920 20 316 1.6 3.2 0.00 0.00 0.00 94 984.4
20260904142420 20 251 3.2 4.8 0.00 0.00 0.00 94 984.3
20260904141920 20 0 0.0 0.0 0.00 0.00 0.00 94 984.2
20260904141419 20 0 0.0 0.0 0.00 0.00 0.00 94 984.1
20260904140919 20 253 1.6 3.2 0.00 0.00 0.00 94 984.1
20260904140419 20 153 1.6 3.2 0.00 0.00 0.00 95 984.0
20260904135918 20 153 1.6 1.6 0.00 0.00 0.00 95 983.9
20260904135418 19 0 0.0 0.0 0.00 0.00 0.00 95 983.7
20260904134917 19 171 1.6 3.2 0.00 0.00 0.00 96 983.8
20260904134417 19 246 1.6 3.2 0.00 0.00 0.00 95 983.7
20260904133916 19 165 1.6 3.2 0.00 0.00 0.00 95 983.6
20260904133416 19 0 0.0 0.0 0.00 0.00 0.00 96 983.6
20260904132916 18 167 3.2 4.8 0.00 0.00 0.00 96 983.6
20260904131854 18 157 3.2 3.2 0.00 0.00 0.00 95 983.7
20260904131354 18 140 1.6 3.2 0.00 0.00 0.00 96 983.7
20260904130854 18 177 1.6 3.2 0.00 0.00 0.00 97 983.8
20260904130354 18 179 3.2 4.8 0.00 0.00 0.00 97 983.8
20260904125853 18 154 3.2 4.8 0.00 0.00 0.00 97 983.8
20260904125353 18 123 1.6 1.6 0.00 0.00 0.00 97 983.9
20260904124332 18 0 0.0 0.0 0.00 0.00 0.00 98 984.0
20260904123832 18 252 1.6 3.2 0.00 0.00 0.00 98 984.0
20260904123331 18 0 0.0 0.0 0.00 0.00 0.00 98 984.0
20260904122830 18 0 0.0 0.0 0.00 0.00 0.00 98 984.0
20260904122330 18 134 1.6 1.6 0.00 0.00 0.00 98 983.9
20260904121830 18 0 0.0 0.0 0.00 0.00 0.00 98 983.9
20260904121330 18 162 1.6 3.2 0.00 0.00 0.00 98 983.8
20260904120829 18 151 1.6 3.2 0.00 0.00 0.00 98 983.9
20260904120329 18 0 0.0 0.0 0.00 0.00 0.00 98 983.8
20260904115828 18 0 0.0 0.0 0.00 0.00 0.00 98 983.6
20260904115328 18 0 0.0 0.0 0.00 0.00 0.00 98 983.6
20260904114828 18 0 0.0 0.0 0.00 0.00 0.00 98 983.6
20260904114328 18 21 0.0 1.6 0.00 0.00 0.00 98 983.5
20260904113827 18 0 0.0 0.0 0.00 0.00 0.00 98 983.4
20260904112806 17 0 0.0 0.0 0.00 0.00 0.00 98 983.5
20260904112306 17 0 0.0 0.0 0.00 0.00 0.00 98 983.4